Find Starlink 34181

NORAD ID: 64144 Int'l Des: 2025-111 Owner: SPXS Country: US Constellation: starlink operational
LEOCIRCULAR

現在のビュー

3D地球を読み込み中...

About Starlink 34181

Starlink 34181 (NORAD 64144) is a starlink constellation satellite (v2 mini) launched May 24, 2025 by SPXS of US. It operates in LEO, CIRCULAR orbit with a mass of 575.00 kg.

次回通過

Passes for default location (London). Set your location on the main map for personalized predictions.

高度履歴

Loading altitude history...

軌道要素

1 64144U 25111X 26263.15143601 .00010851 00000-0 40318-3 0 9993
2 64144 42.9982 59.6655 0001678 271.5249 88.5411 15.27585407 75208
Epoch: Sep 20, 2026 • Age: 32 hours

現在のステータス

高度 486.9 km
遠地点 / 近地点 N/A
速度 7.63 km/s
衛星直下点 41.98°N, 44.88°W
打ち上げ日 May 24, 2025
運用期間 1.3 years
タイプ internet

技術仕様

分類 Payload
質量 575.00 kg
乾燥質量 530.00 kg
長さ 0.30 m
スパン 29.00 m
形状 ? Box + pan
製造者 SPXS
バスタイプ Starlink V2MO
フェーズステータス In Orbit
所有者/国 SPXS/US

Most Searched